contact:dominique.lefevre@mio.osupytheas.fr, maurice.libes@osupytheas.fr, didier.mallarino@osupytheas.fr
Project:EMSO http://www.emso-fr.org/EMSO-France
Depth: 2436.0 m
Title:EMSO Ligure Ouest : Data MII capteur MICROCAT
DateTime_Computer,Latitude,Longitude,Temperature,Conductivity,Pressure,DateTime_Instrument
DateTime_Computer,Latitude,Longitude,degC,S m-1,dbar,DateTime_Instrument
2023-02-27T00:02:43Z,42.805,6.029,13.3035,4.60122,2470.646,2023-2-27T02:05:14Z
2023-02-27T00:05:46Z,42.805,6.029,13.3049,4.60119,2470.646,2023-2-27T02:08:17Z
2023-02-27T00:08:49Z,42.805,6.029,13.3047,4.60136,2470.624,2023-2-27T02:11:20Z
2023-02-27T00:11:52Z,42.805,6.029,13.3031,4.60145,2470.67,2023-2-27T02:14:23Z
2023-02-27T00:14:56Z,42.805,6.029,13.3032,4.60102,2470.661,2023-2-27T02:17:26Z
2023-02-27T00:17:59Z,42.805,6.029,13.3034,4.60114,2470.67,2023-2-27T02:20:29Z
2023-02-27T00:21:02Z,42.805,6.029,13.3038,4.60126,2470.624,2023-2-27T02:23:32Z
2023-02-27T00:24:05Z,42.805,6.029,13.3050,4.60114,2470.684,2023-2-27T02:26:35Z
2023-02-27T00:27:08Z,42.805,6.029,13.3050,4.60122,2470.661,2023-2-27T02:29:38Z
2023-02-27T00:30:11Z,42.805,6.029,13.3051,4.60116,2470.67,2023-2-27T02:32:41Z
2023-02-27T00:33:14Z,42.805,6.029,13.3037,4.60109,2470.661,2023-2-27T02:35:44Z
2023-02-27T00:36:17Z,42.805,6.029,13.3041,4.60114,2470.646,2023-2-27T02:38:48Z
2023-02-27T00:39:20Z,42.805,6.029,13.3033,4.60132,2470.624,2023-2-27T02:41:51Z
2023-02-27T00:42:23Z,42.805,6.029,13.3036,4.60107,2470.661,2023-2-27T02:44:54Z
2023-02-27T00:45:26Z,42.805,6.029,13.3046,4.60121,2470.684,2023-2-27T02:47:57Z
2023-02-27T00:48:29Z,42.805,6.029,13.3043,4.60119,2470.646,2023-2-27T02:51:00Z
2023-02-27T00:51:32Z,42.805,6.029,13.3041,4.60125,2470.661,2023-2-27T02:54:03Z
2023-02-27T00:54:36Z,42.805,6.029,13.3031,4.60099,2470.624,2023-2-27T02:57:06Z
2023-02-27T00:57:39Z,42.805,6.029,13.3037,4.60098,2470.646,2023-2-27T03:00:09Z
2023-02-27T01:00:42Z,42.805,6.029,13.3021,4.60086,2470.637,2023-2-27T03:03:12Z
2023-02-27T01:03:45Z,42.805,6.029,13.3029,4.60127,2470.646,2023-2-27T03:06:15Z
2023-02-27T01:06:48Z,42.805,6.029,13.3044,4.60117,2470.637,2023-2-27T03:09:18Z
2023-02-27T01:09:51Z,42.805,6.029,13.3050,4.60131,2470.624,2023-2-27T03:12:21Z
2023-02-27T01:12:54Z,42.805,6.029,13.3049,4.60109,2470.624,2023-2-27T03:15:24Z
2023-02-27T01:15:57Z,42.805,6.029,13.3037,4.60119,2470.661,2023-2-27T03:18:28Z
2023-02-27T01:19:00Z,42.805,6.029,13.3056,4.60107,2470.637,2023-2-27T03:21:31Z
2023-02-27T01:22:03Z,42.805,6.029,13.3036,4.60129,2470.661,2023-2-27T03:24:34Z
2023-02-27T01:25:06Z,42.805,6.029,13.3043,4.60133,2470.614,2023-2-27T03:27:37Z
2023-02-27T01:28:09Z,42.805,6.029,13.3033,4.60127,2470.637,2023-2-27T03:30:40Z
2023-02-27T01:31:13Z,42.805,6.029,13.3050,4.60139,2470.661,2023-2-27T03:33:43Z
2023-02-27T01:34:16Z,42.805,6.029,13.3043,4.60144,2470.67,2023-2-27T03:36:46Z
2023-02-27T01:37:19Z,42.805,6.029,13.3038,4.60129,2470.661,2023-2-27T03:39:49Z
2023-02-27T01:40:22Z,42.805,6.029,13.3043,4.60119,2470.624,2023-2-27T03:42:52Z
2023-02-27T01:43:25Z,42.805,6.029,13.3044,4.60106,2470.646,2023-2-27T03:45:55Z
2023-02-27T01:46:28Z,42.805,6.029,13.3052,4.60099,2470.646,2023-2-27T03:48:58Z
2023-02-27T01:49:31Z,42.805,6.029,13.3030,4.60127,2470.661,2023-2-27T03:52:01Z
2023-02-27T01:52:34Z,42.805,6.029,13.3047,4.60129,2470.624,2023-2-27T03:55:05Z
2023-02-27T01:55:37Z,42.805,6.029,13.3037,4.60121,2470.624,2023-2-27T03:58:08Z
2023-02-27T01:58:40Z,42.805,6.029,13.3050,4.60135,2470.646,2023-2-27T04:01:11Z
2023-02-27T02:01:43Z,42.805,6.029,13.3047,4.60131,2470.646,2023-2-27T04:04:14Z
2023-02-27T02:04:46Z,42.805,6.029,13.3046,4.60133,2470.646,2023-2-27T04:07:17Z
2023-02-27T02:07:49Z,42.805,6.029,13.3057,4.60139,2470.624,2023-2-27T04:10:20Z
2023-02-27T02:10:53Z,42.805,6.029,13.3060,4.60129,2470.661,2023-2-27T04:13:23Z
2023-02-27T02:13:56Z,42.805,6.029,13.3054,4.60126,2470.624,2023-2-27T04:16:26Z
2023-02-27T02:16:59Z,42.805,6.029,13.3028,4.60134,2470.6,2023-2-27T04:19:29Z
2023-02-27T02:20:02Z,42.805,6.029,13.3070,4.60125,2470.637,2023-2-27T04:22:32Z
2023-02-27T02:23:05Z,42.805,6.029,13.3060,4.60110,2470.646,2023-2-27T04:25:35Z
2023-02-27T02:26:08Z,42.805,6.029,13.3036,4.60130,2470.637,2023-2-27T04:28:38Z
2023-02-27T02:29:11Z,42.805,6.029,13.3034,4.60132,2470.637,2023-2-27T04:31:41Z
2023-02-27T02:32:14Z,42.805,6.029,13.3041,4.60127,2470.6,2023-2-27T04:34:45Z
2023-02-27T02:35:17Z,42.805,6.029,13.3048,4.60155,2470.624,2023-2-27T04:37:48Z
2023-02-27T02:38:20Z,42.805,6.029,13.3049,4.60145,2470.637,2023-2-27T04:40:51Z
2023-02-27T02:41:23Z,42.805,6.029,13.3056,4.60123,2470.624,2023-2-27T04:43:54Z
2023-02-27T02:44:26Z,42.805,6.029,13.3044,4.60127,2470.646,2023-2-27T04:46:57Z
2023-02-27T02:47:30Z,42.805,6.029,13.3048,4.60132,2470.646,2023-2-27T04:50:00Z
2023-02-27T02:50:33Z,42.805,6.029,13.3054,4.60153,2470.624,2023-2-27T04:53:03Z
2023-02-27T02:53:36Z,42.805,6.029,13.3057,4.60126,2470.646,2023-2-27T04:56:06Z
2023-02-27T02:56:39Z,42.805,6.029,13.3039,4.60150,2470.661,2023-2-27T04:59:09Z
2023-02-27T02:59:42Z,42.805,6.029,13.3030,4.60140,2470.637,2023-2-27T05:02:12Z
2023-02-27T03:02:45Z,42.805,6.029,13.3034,4.60099,2470.624,2023-2-27T05:05:15Z
2023-02-27T03:05:48Z,42.805,6.029,13.3037,4.60139,2470.624,2023-2-27T05:08:18Z
2023-02-27T03:08:51Z,42.805,6.029,13.3056,4.60140,2470.646,2023-2-27T05:11:22Z
2023-02-27T03:11:54Z,42.805,6.029,13.3049,4.60140,2470.637,2023-2-27T05:14:25Z
2023-02-27T03:14:57Z,42.805,6.029,13.3046,4.60126,2470.624,2023-2-27T05:17:28Z
2023-02-27T03:18:00Z,42.805,6.029,13.3041,4.60140,2470.624,2023-2-27T05:20:31Z
2023-02-27T03:21:03Z,42.805,6.029,13.3040,4.60140,2470.614,2023-2-27T05:23:34Z
2023-02-27T03:24:06Z,42.805,6.029,13.3054,4.60122,2470.637,2023-2-27T05:26:37Z
2023-02-27T03:27:10Z,42.805,6.029,13.3031,4.60153,2470.646,2023-2-27T05:29:40Z
2023-02-27T03:30:13Z,42.805,6.029,13.3045,4.60127,2470.646,2023-2-27T05:32:43Z
2023-02-27T03:33:16Z,42.805,6.029,13.3022,4.60109,2470.624,2023-2-27T05:35:46Z
2023-02-27T03:36:19Z,42.805,6.029,13.3031,4.60105,2470.637,2023-2-27T05:38:49Z
2023-02-27T03:39:22Z,42.805,6.029,13.3036,4.60127,2470.624,2023-2-27T05:41:52Z
2023-02-27T03:42:25Z,42.805,6.029,13.3052,4.60155,2470.637,2023-2-27T05:44:55Z
2023-02-27T03:45:28Z,42.805,6.029,13.3036,4.60138,2470.624,2023-2-27T05:47:59Z
2023-02-27T03:48:31Z,42.805,6.029,13.3048,4.60150,2470.661,2023-2-27T05:51:02Z
2023-02-27T03:51:34Z,42.805,6.029,13.3039,4.60124,2470.637,2023-2-27T05:54:05Z
2023-02-27T03:54:37Z,42.805,6.029,13.3031,4.60104,2470.637,2023-2-27T05:57:08Z
2023-02-27T03:57:40Z,42.805,6.029,13.3028,4.60119,2470.661,2023-2-27T06:00:11Z
2023-02-27T04:00:43Z,42.805,6.029,13.3034,4.60103,2470.6,2023-2-27T06:03:14Z
2023-02-27T04:03:46Z,42.805,6.029,13.3030,4.60109,2470.614,2023-2-27T06:06:17Z
2023-02-27T04:06:50Z,42.805,6.029,13.3028,4.60129,2470.614,2023-2-27T06:09:20Z
2023-02-27T04:09:53Z,42.805,6.029,13.3029,4.60123,2470.614,2023-2-27T06:12:23Z
2023-02-27T04:12:56Z,42.805,6.029,13.3034,4.60144,2470.624,2023-2-27T06:15:26Z
2023-02-27T04:15:59Z,42.805,6.029,13.3038,4.60128,2470.614,2023-2-27T06:18:29Z
2023-02-27T04:19:02Z,42.805,6.029,13.3048,4.60133,2470.637,2023-2-27T06:21:32Z
2023-02-27T04:22:05Z,42.805,6.029,13.3048,4.60137,2470.6,2023-2-27T06:24:36Z
2023-02-27T04:25:08Z,42.805,6.029,13.3050,4.60103,2470.624,2023-2-27T06:27:39Z
2023-02-27T04:28:11Z,42.805,6.029,13.3040,4.60139,2470.624,2023-2-27T06:30:42Z
2023-02-27T04:31:14Z,42.805,6.029,13.3034,4.60116,2470.614,2023-2-27T06:33:45Z
2023-02-27T04:34:17Z,42.805,6.029,13.3043,4.60148,2470.637,2023-2-27T06:36:48Z
2023-02-27T04:37:20Z,42.805,6.029,13.3036,4.60151,2470.624,2023-2-27T06:39:51Z
2023-02-27T04:40:24Z,42.805,6.029,13.3034,4.60147,2470.6,2023-2-27T06:42:54Z
2023-02-27T04:43:27Z,42.805,6.029,13.3032,4.60140,2470.591,2023-2-27T06:45:57Z
2023-02-27T04:46:30Z,42.805,6.029,13.3030,4.60135,2470.591,2023-2-27T06:49:00Z
2023-02-27T04:49:33Z,42.805,6.029,13.3031,4.60126,2470.591,2023-2-27T06:52:03Z
2023-02-27T04:52:36Z,42.805,6.029,13.3033,4.60132,2470.624,2023-2-27T06:55:06Z
2023-02-27T04:55:39Z,42.805,6.029,13.3033,4.60116,2470.6,2023-2-27T06:58:09Z
2023-02-27T04:58:42Z,42.805,6.029,13.3036,4.60137,2470.614,2023-2-27T07:01:12Z
2023-02-27T05:01:45Z,42.805,6.029,13.3046,4.60141,2470.6,2023-2-27T07:04:16Z
2023-02-27T05:04:48Z,42.805,6.029,13.3024,4.60114,2470.6,2023-2-27T07:07:19Z
2023-02-27T05:07:51Z,42.805,6.029,13.3026,4.60106,2470.577,2023-2-27T07:10:22Z
2023-02-27T05:10:54Z,42.805,6.029,13.3037,4.60134,2470.6,2023-2-27T07:13:25Z
2023-02-27T05:13:57Z,42.805,6.029,13.3041,4.60123,2470.637,2023-2-27T07:16:28Z
2023-02-27T05:17:00Z,42.805,6.029,13.3031,4.60129,2470.6,2023-2-27T07:19:31Z
2023-02-27T05:20:04Z,42.805,6.029,13.3037,4.60125,2470.614,2023-2-27T07:22:34Z
2023-02-27T05:23:07Z,42.805,6.029,13.3024,4.60112,2470.614,2023-2-27T07:25:37Z
2023-02-27T05:26:10Z,42.805,6.029,13.3024,4.60119,2470.637,2023-2-27T07:28:40Z
2023-02-27T05:29:13Z,42.805,6.029,13.3027,4.60103,2470.577,2023-2-27T07:31:43Z
2023-02-27T05:32:16Z,42.805,6.029,13.3026,4.60102,2470.6,2023-2-27T07:34:46Z
2023-02-27T05:35:19Z,42.805,6.029,13.3030,4.60108,2470.624,2023-2-27T07:37:49Z
2023-02-27T05:38:22Z,42.805,6.029,13.3027,4.60133,2470.577,2023-2-27T07:40:53Z
2023-02-27T05:41:25Z,42.805,6.029,13.3032,4.60115,2470.624,2023-2-27T07:43:56Z
2023-02-27T05:44:28Z,42.805,6.029,13.3034,4.60114,2470.624,2023-2-27T07:46:59Z
2023-02-27T05:47:31Z,42.805,6.029,13.3024,4.60114,2470.6,2023-2-27T07:50:02Z
2023-02-27T05:50:34Z,42.805,6.029,13.3021,4.60097,2470.577,2023-2-27T07:53:05Z
2023-02-27T05:53:37Z,42.805,6.029,13.3031,4.60125,2470.591,2023-2-27T07:56:08Z
2023-02-27T05:56:40Z,42.805,6.029,13.3029,4.60106,2470.6,2023-2-27T07:59:11Z
2023-02-27T05:59:44Z,42.805,6.029,13.3027,4.60103,2470.6,2023-2-27T08:02:14Z
2023-02-27T06:02:47Z,42.805,6.029,13.3029,4.60096,2470.591,2023-2-27T08:05:17Z
2023-02-27T06:05:50Z,42.805,6.029,13.3024,4.60095,2470.6,2023-2-27T08:08:20Z
2023-02-27T06:08:53Z,42.805,6.029,13.3029,4.60097,2470.591,2023-2-27T08:11:23Z
2023-02-27T06:11:56Z,42.805,6.029,13.3023,4.60117,2470.577,2023-2-27T08:14:26Z
2023-02-27T06:14:59Z,42.805,6.029,13.3025,4.60097,2470.577,2023-2-27T08:17:29Z
2023-02-27T06:18:02Z,42.805,6.029,13.3024,4.60092,2470.591,2023-2-27T08:20:33Z
2023-02-27T06:21:05Z,42.805,6.029,13.3032,4.60097,2470.6,2023-2-27T08:23:36Z
2023-02-27T06:24:08Z,42.805,6.029,13.3031,4.60097,2470.577,2023-2-27T08:26:39Z
2023-02-27T06:27:11Z,42.805,6.029,13.3030,4.60112,2470.6,2023-2-27T08:29:42Z
2023-02-27T06:30:14Z,42.805,6.029,13.3029,4.60116,2470.6,2023-2-27T08:32:45Z
2023-02-27T06:33:17Z,42.805,6.029,13.3029,4.60095,2470.577,2023-2-27T08:35:48Z
2023-02-27T06:36:20Z,42.805,6.029,13.3025,4.60092,2470.53,2023-2-27T08:38:51Z
2023-02-27T06:39:24Z,42.805,6.029,13.3019,4.60099,2470.6,2023-2-27T08:41:54Z
2023-02-27T06:42:27Z,42.805,6.029,13.3036,4.60097,2470.6,2023-2-27T08:44:57Z
2023-02-27T06:45:30Z,42.805,6.029,13.3031,4.60102,2470.591,2023-2-27T08:48:00Z
2023-02-27T06:48:33Z,42.805,6.029,13.3019,4.60103,2470.6,2023-2-27T08:51:03Z
2023-02-27T06:51:36Z,42.805,6.029,13.3027,4.60106,2470.586,2023-2-27T08:54:06Z
2023-02-27T06:54:39Z,42.805,6.029,13.3026,4.60099,2470.591,2023-2-27T08:57:09Z
2023-02-27T06:57:42Z,42.805,6.029,13.3023,4.60097,2470.6,2023-2-27T09:00:13Z
2023-02-27T07:00:45Z,42.805,6.029,13.3031,4.60097,2470.6,2023-2-27T09:03:16Z
2023-02-27T07:03:48Z,42.805,6.029,13.3026,4.60090,2470.6,2023-2-27T09:06:19Z
2023-02-27T07:06:51Z,42.805,6.029,13.3020,4.60096,2470.591,2023-2-27T09:09:22Z
2023-02-27T07:09:54Z,42.805,6.029,13.3015,4.60081,2470.577,2023-2-27T09:12:25Z
2023-02-27T07:12:57Z,42.805,6.029,13.3026,4.60098,2470.577,2023-2-27T09:15:28Z
2023-02-27T07:16:01Z,42.805,6.029,13.3019,4.60099,2470.591,2023-2-27T09:18:31Z
2023-02-27T07:19:04Z,42.805,6.029,13.3019,4.60089,2470.591,2023-2-27T09:21:34Z
2023-02-27T07:22:07Z,42.805,6.029,13.3034,4.60101,2470.614,2023-2-27T09:24:37Z
2023-02-27T07:25:10Z,42.805,6.029,13.3032,4.60111,2470.614,2023-2-27T09:27:40Z
2023-02-27T07:28:13Z,42.805,6.029,13.3023,4.60099,2470.567,2023-2-27T09:30:43Z
2023-02-27T07:31:16Z,42.805,6.029,13.3031,4.60098,2470.577,2023-2-27T09:33:46Z
2023-02-27T07:34:19Z,42.805,6.029,13.3016,4.60087,2470.591,2023-2-27T09:36:50Z
2023-02-27T07:37:22Z,42.805,6.029,13.3017,4.60090,2470.614,2023-2-27T09:39:53Z
2023-02-27T07:40:25Z,42.805,6.029,13.3025,4.60114,2470.577,2023-2-27T09:42:56Z
2023-02-27T07:43:28Z,42.805,6.029,13.3020,4.60099,2470.6,2023-2-27T09:45:59Z
2023-02-27T07:46:31Z,42.805,6.029,13.3026,4.60105,2470.553,2023-2-27T09:49:02Z
2023-02-27T07:49:34Z,42.805,6.029,13.3030,4.60101,2470.614,2023-2-27T09:52:05Z
2023-02-27T07:52:37Z,42.805,6.029,13.3018,4.60113,2470.553,2023-2-27T09:55:08Z
2023-02-27T07:55:41Z,42.805,6.029,13.3021,4.60088,2470.577,2023-2-27T09:58:11Z
2023-02-27T07:58:44Z,42.805,6.029,13.3027,4.60107,2470.553,2023-2-27T10:01:14Z
2023-02-27T08:01:47Z,42.805,6.029,13.3020,4.60084,2470.553,2023-2-27T10:04:17Z
2023-02-27T08:04:50Z,42.805,6.029,13.3026,4.60091,2470.577,2023-2-27T10:07:20Z
2023-02-27T08:07:53Z,42.805,6.029,13.3023,4.60090,2470.577,2023-2-27T10:10:23Z
2023-02-27T08:10:56Z,42.805,6.029,13.3021,4.60099,2470.6,2023-2-27T10:13:27Z
2023-02-27T08:13:59Z,42.805,6.029,13.3021,4.60097,2470.591,2023-2-27T10:16:30Z
2023-02-27T08:17:02Z,42.805,6.029,13.3021,4.60107,2470.577,2023-2-27T10:19:33Z
2023-02-27T08:20:05Z,42.805,6.029,13.3024,4.60100,2470.567,2023-2-27T10:22:36Z
2023-02-27T08:23:08Z,42.805,6.029,13.3021,4.60089,2470.577,2023-2-27T10:25:39Z
2023-02-27T08:26:11Z,42.805,6.029,13.3023,4.60087,2470.577,2023-2-27T10:28:42Z
2023-02-27T08:29:14Z,42.805,6.029,13.3028,4.60122,2470.6,2023-2-27T10:31:45Z
2023-02-27T08:32:18Z,42.805,6.029,13.3024,4.60089,2470.614,2023-2-27T10:34:48Z
2023-02-27T08:35:21Z,42.805,6.029,13.3020,4.60086,2470.614,2023-2-27T10:37:51Z
2023-02-27T08:38:24Z,42.805,6.029,13.3026,4.60090,2470.6,2023-2-27T10:40:54Z
2023-02-27T08:41:27Z,42.805,6.029,13.3021,4.60094,2470.6,2023-2-27T10:43:57Z
2023-02-27T08:44:30Z,42.805,6.029,13.3026,4.60099,2470.6,2023-2-27T10:47:00Z
2023-02-27T08:47:33Z,42.805,6.029,13.3019,4.60107,2470.6,2023-2-27T10:50:04Z
2023-02-27T08:50:36Z,42.805,6.029,13.3019,4.60081,2470.624,2023-2-27T10:53:07Z
2023-02-27T08:53:39Z,42.805,6.029,13.3023,4.60096,2470.6,2023-2-27T10:56:10Z
2023-02-27T08:56:42Z,42.805,6.029,13.3022,4.60097,2470.577,2023-2-27T10:59:13Z
2023-02-27T08:59:45Z,42.805,6.029,13.3024,4.60085,2470.624,2023-2-27T11:02:16Z
2023-02-27T09:02:48Z,42.805,6.029,13.3026,4.60088,2470.6,2023-2-27T11:05:19Z
2023-02-27T09:05:51Z,42.805,6.029,13.3027,4.60101,2470.614,2023-2-27T11:08:22Z
2023-02-27T09:08:55Z,42.805,6.029,13.3025,4.60099,2470.6,2023-2-27T11:11:25Z
2023-02-27T09:11:58Z,42.805,6.029,13.3021,4.60092,2470.577,2023-2-27T11:14:28Z
2023-02-27T09:15:01Z,42.805,6.029,13.3034,4.60095,2470.614,2023-2-27T11:17:31Z
2023-02-27T09:18:04Z,42.805,6.029,13.3029,4.60102,2470.646,2023-2-27T11:20:34Z
2023-02-27T09:21:07Z,42.805,6.029,13.3026,4.60106,2470.624,2023-2-27T11:23:37Z
2023-02-27T09:24:10Z,42.805,6.029,13.3028,4.60090,2470.637,2023-2-27T11:26:41Z
2023-02-27T09:27:13Z,42.805,6.029,13.3021,4.60086,2470.614,2023-2-27T11:29:44Z
2023-02-27T09:30:16Z,42.805,6.029,13.3019,4.60094,2470.646,2023-2-27T11:32:47Z
2023-02-27T09:33:19Z,42.805,6.029,13.3028,4.60100,2470.591,2023-2-27T11:35:50Z
2023-02-27T09:36:22Z,42.805,6.029,13.3027,4.60098,2470.586,2023-2-27T11:38:53Z
2023-02-27T09:39:25Z,42.805,6.029,13.3019,4.60097,2470.624,2023-2-27T11:41:56Z
2023-02-27T09:42:28Z,42.805,6.029,13.3025,4.60099,2470.661,2023-2-27T11:44:59Z
2023-02-27T09:45:32Z,42.805,6.029,13.3024,4.60094,2470.661,2023-2-27T11:48:02Z
2023-02-27T09:48:35Z,42.805,6.029,13.3037,4.60104,2470.661,2023-2-27T11:51:05Z
2023-02-27T09:51:38Z,42.805,6.029,13.3020,4.60102,2470.637,2023-2-27T11:54:08Z
2023-02-27T09:54:41Z,42.805,6.029,13.3029,4.60115,2470.661,2023-2-27T11:57:11Z
2023-02-27T09:57:44Z,42.805,6.029,13.3025,4.60094,2470.614,2023-2-27T12:00:15Z
2023-02-27T10:00:47Z,42.805,6.029,13.3021,4.60096,2470.67,2023-2-27T12:03:18Z
2023-02-27T10:03:50Z,42.805,6.029,13.3030,4.60107,2470.637,2023-2-27T12:06:21Z
2023-02-27T10:06:53Z,42.805,6.029,13.3025,4.60104,2470.661,2023-2-27T12:09:24Z
2023-02-27T10:09:56Z,42.805,6.029,13.3022,4.60088,2470.637,2023-2-27T12:12:27Z
2023-02-27T10:12:59Z,42.805,6.029,13.3021,4.60082,2470.614,2023-2-27T12:15:30Z
2023-02-27T10:16:02Z,42.805,6.029,13.3019,4.60085,2470.661,2023-2-27T12:18:33Z
2023-02-27T10:19:05Z,42.805,6.029,13.3021,4.60114,2470.707,2023-2-27T12:21:36Z
2023-02-27T10:22:09Z,42.805,6.029,13.3025,4.60107,2470.646,2023-2-27T12:24:39Z
2023-02-27T10:25:12Z,42.805,6.029,13.3019,4.60085,2470.661,2023-2-27T12:27:42Z
2023-02-27T10:28:15Z,42.805,6.029,13.3024,4.60086,2470.684,2023-2-27T12:30:45Z
2023-02-27T10:31:18Z,42.805,6.029,13.3024,4.60089,2470.67,2023-2-27T12:33:48Z
2023-02-27T10:34:21Z,42.805,6.029,13.3014,4.60081,2470.633,2023-2-27T12:36:52Z
2023-02-27T10:37:24Z,42.805,6.029,13.3019,4.60087,2470.646,2023-2-27T12:39:55Z
2023-02-27T10:40:27Z,42.805,6.029,13.3023,4.60087,2470.67,2023-2-27T12:42:58Z
2023-02-27T10:43:30Z,42.805,6.029,13.3019,4.60082,2470.67,2023-2-27T12:46:01Z
2023-02-27T10:46:33Z,42.805,6.029,13.3026,4.60089,2470.661,2023-2-27T12:49:04Z
2023-02-27T10:49:36Z,42.805,6.029,13.3024,4.60092,2470.637,2023-2-27T12:52:07Z
2023-02-27T10:52:39Z,42.805,6.029,13.3022,4.60097,2470.684,2023-2-27T12:55:10Z
2023-02-27T10:55:43Z,42.805,6.029,13.3039,4.60100,2470.633,2023-2-27T12:58:13Z
2023-02-27T10:58:46Z,42.805,6.029,13.3024,4.60094,2470.67,2023-2-27T13:01:16Z
2023-02-27T11:01:49Z,42.805,6.029,13.3024,4.60106,2470.661,2023-2-27T13:04:19Z
2023-02-27T11:04:52Z,42.805,6.029,13.3018,4.60081,2470.67,2023-2-27T13:07:22Z
2023-02-27T11:07:55Z,42.805,6.029,13.3025,4.60093,2470.646,2023-2-27T13:10:25Z
2023-02-27T11:10:58Z,42.805,6.029,13.3024,4.60087,2470.646,2023-2-27T13:13:29Z
2023-02-27T11:14:01Z,42.805,6.029,13.3026,4.60084,2470.646,2023-2-27T13:16:32Z
2023-02-27T11:17:04Z,42.805,6.029,13.3017,4.60081,2470.646,2023-2-27T13:19:35Z
2023-02-27T11:20:07Z,42.805,6.029,13.3034,4.60099,2470.684,2023-2-27T13:22:38Z
2023-02-27T11:23:10Z,42.805,6.029,13.3020,4.60109,2470.661,2023-2-27T13:25:41Z
2023-02-27T11:26:13Z,42.805,6.029,13.3031,4.60103,2470.693,2023-2-27T13:28:44Z
2023-02-27T11:29:16Z,42.805,6.029,13.3024,4.60088,2470.637,2023-2-27T13:31:47Z
2023-02-27T11:32:20Z,42.805,6.029,13.3029,4.60086,2470.646,2023-2-27T13:34:50Z
2023-02-27T11:35:23Z,42.805,6.029,13.3022,4.60087,2470.646,2023-2-27T13:37:53Z
2023-02-27T11:38:26Z,42.805,6.029,13.3026,4.60108,2470.646,2023-2-27T13:40:56Z
2023-02-27T11:41:29Z,42.805,6.029,13.3031,4.60093,2470.67,2023-2-27T13:43:59Z
2023-02-27T11:44:32Z,42.805,6.029,13.3032,4.60115,2470.646,2023-2-27T13:47:03Z
2023-02-27T11:47:35Z,42.805,6.029,13.3026,4.60110,2470.67,2023-2-27T13:50:06Z
2023-02-27T11:50:38Z,42.805,6.029,13.3033,4.60091,2470.684,2023-2-27T13:53:09Z
2023-02-27T11:53:41Z,42.805,6.029,13.3017,4.60085,2470.661,2023-2-27T13:56:12Z
2023-02-27T11:56:44Z,42.805,6.029,13.3036,4.60099,2470.67,2023-2-27T13:59:15Z
2023-02-27T11:59:47Z,42.805,6.029,13.3023,4.60093,2470.646,2023-2-27T14:02:18Z
2023-02-27T12:02:50Z,42.805,6.029,13.3023,4.60083,2470.633,2023-2-27T14:05:21Z
2023-02-27T12:05:53Z,42.805,6.029,13.3024,4.60081,2470.646,2023-2-27T14:08:24Z
2023-02-27T12:08:57Z,42.805,6.029,13.3020,4.60081,2470.646,2023-2-27T14:11:27Z
2023-02-27T12:12:00Z,42.805,6.029,13.3019,4.60084,2470.67,2023-2-27T14:14:30Z
2023-02-27T12:15:03Z,42.805,6.029,13.3018,4.60081,2470.646,2023-2-27T14:17:33Z
2023-02-27T12:18:06Z,42.805,6.029,13.3025,4.60081,2470.661,2023-2-27T14:20:36Z
2023-02-27T12:21:09Z,42.805,6.029,13.3021,4.60107,2470.67,2023-2-27T14:23:40Z
2023-02-27T12:24:12Z,42.805,6.029,13.3024,4.60103,2470.624,2023-2-27T14:26:43Z
2023-02-27T12:27:15Z,42.805,6.029,13.3019,4.60112,2470.624,2023-2-27T14:29:46Z
2023-02-27T12:30:18Z,42.805,6.029,13.3029,4.60093,2470.646,2023-2-27T14:32:49Z
2023-02-27T12:33:21Z,42.805,6.029,13.3025,4.60117,2470.67,2023-2-27T14:35:52Z
2023-02-27T12:36:24Z,42.805,6.029,13.3024,4.60119,2470.67,2023-2-27T14:38:55Z
2023-02-27T12:39:27Z,42.805,6.029,13.3029,4.60091,2470.637,2023-2-27T14:41:58Z
2023-02-27T12:42:30Z,42.805,6.029,13.3029,4.60127,2470.624,2023-2-27T14:45:01Z
2023-02-27T12:45:34Z,42.805,6.029,13.3018,4.60085,2470.646,2023-2-27T14:48:04Z
2023-02-27T12:48:37Z,42.805,6.029,13.3023,4.60097,2470.684,2023-2-27T14:51:07Z
2023-02-27T12:51:40Z,42.805,6.029,13.3024,4.60088,2470.646,2023-2-27T14:54:10Z
2023-02-27T12:54:43Z,42.805,6.029,13.3024,4.60109,2470.67,2023-2-27T14:57:14Z
2023-02-27T12:57:46Z,42.805,6.029,13.3020,4.60094,2470.661,2023-2-27T15:00:17Z
2023-02-27T13:00:49Z,42.805,6.029,13.3022,4.60125,2470.646,2023-2-27T15:03:20Z
2023-02-27T13:03:52Z,42.805,6.029,13.3018,4.60102,2470.67,2023-2-27T15:06:23Z
2023-02-27T13:06:55Z,42.805,6.029,13.3020,4.60091,2470.646,2023-2-27T15:09:26Z
2023-02-27T13:09:58Z,42.805,6.029,13.3031,4.60094,2470.624,2023-2-27T15:12:29Z
2023-02-27T13:13:01Z,42.805,6.029,13.3027,4.60085,2470.67,2023-2-27T15:15:32Z
2023-02-27T13:16:04Z,42.805,6.029,13.3030,4.60089,2470.624,2023-2-27T15:18:35Z
2023-02-27T13:19:08Z,42.805,6.029,13.3022,4.60089,2470.661,2023-2-27T15:21:38Z
2023-02-27T13:22:11Z,42.805,6.029,13.3031,4.60094,2470.684,2023-2-27T15:24:41Z
2023-02-27T13:25:14Z,42.805,6.029,13.3026,4.60103,2470.646,2023-2-27T15:27:44Z
2023-02-27T13:28:17Z,42.805,6.029,13.3026,4.60104,2470.661,2023-2-27T15:30:47Z
2023-02-27T13:31:20Z,42.805,6.029,13.3023,4.60093,2470.646,2023-2-27T15:33:51Z
2023-02-27T13:34:23Z,42.805,6.029,13.3039,4.60104,2470.661,2023-2-27T15:36:54Z
2023-02-27T13:37:26Z,42.805,6.029,13.3031,4.60097,2470.646,2023-2-27T15:39:57Z
2023-02-27T13:40:29Z,42.805,6.029,13.3026,4.60102,2470.67,2023-2-27T15:43:00Z
2023-02-27T13:43:32Z,42.805,6.029,13.3021,4.60087,2470.707,2023-2-27T15:46:03Z
2023-02-27T13:46:35Z,42.805,6.029,13.3019,4.60091,2470.661,2023-2-27T15:49:06Z
2023-02-27T13:49:38Z,42.805,6.029,13.3021,4.60094,2470.646,2023-2-27T15:52:09Z
2023-02-27T13:52:41Z,42.805,6.029,13.3029,4.60092,2470.646,2023-2-27T15:55:12Z
2023-02-27T13:55:44Z,42.805,6.029,13.3020,4.60087,2470.646,2023-2-27T15:58:15Z
2023-02-27T13:58:48Z,42.805,6.029,13.3024,4.60087,2470.646,2023-2-27T16:01:18Z
2023-02-27T14:01:51Z,42.805,6.029,13.3028,4.60099,2470.646,2023-2-27T16:04:21Z
2023-02-27T14:04:54Z,42.805,6.029,13.3027,4.60102,2470.61,2023-2-27T16:07:24Z
2023-02-27T14:07:57Z,42.805,6.029,13.3015,4.60089,2470.661,2023-2-27T16:10:28Z
2023-02-27T14:11:00Z,42.805,6.029,13.3028,4.60097,2470.6,2023-2-27T16:13:31Z
2023-02-27T14:14:03Z,42.805,6.029,13.3028,4.60106,2470.624,2023-2-27T16:16:34Z
2023-02-27T14:17:06Z,42.805,6.029,13.3025,4.60104,2470.67,2023-2-27T16:19:37Z
2023-02-27T14:20:09Z,42.805,6.029,13.3021,4.60089,2470.67,2023-2-27T16:22:40Z
2023-02-27T14:23:12Z,42.805,6.029,13.3029,4.60106,2470.646,2023-2-27T16:25:43Z
2023-02-27T14:26:15Z,42.805,6.029,13.3041,4.60113,2470.637,2023-2-27T16:28:46Z
2023-02-27T14:29:18Z,42.805,6.029,13.3026,4.60101,2470.637,2023-2-27T16:31:49Z
2023-02-27T14:32:22Z,42.805,6.029,13.3021,4.60092,2470.624,2023-2-27T16:34:52Z
2023-02-27T14:35:25Z,42.805,6.029,13.3016,4.60093,2470.624,2023-2-27T16:37:55Z
2023-02-27T14:38:28Z,42.805,6.029,13.3022,4.60089,2470.614,2023-2-27T16:40:58Z
2023-02-27T14:41:31Z,42.805,6.029,13.3024,4.60101,2470.624,2023-2-27T16:44:02Z
2023-02-27T14:44:34Z,42.805,6.029,13.3027,4.60108,2470.646,2023-2-27T16:47:05Z
2023-02-27T14:47:37Z,42.805,6.029,13.3019,4.60096,2470.624,2023-2-27T16:50:08Z
2023-02-27T14:50:40Z,42.805,6.029,13.3022,4.60116,2470.6,2023-2-27T16:53:11Z
2023-02-27T14:53:43Z,42.805,6.029,13.3027,4.60114,2470.624,2023-2-27T16:56:14Z
2023-02-27T14:56:46Z,42.805,6.029,13.3026,4.60117,2470.637,2023-2-27T16:59:17Z
2023-02-27T14:59:49Z,42.805,6.029,13.3026,4.60104,2470.661,2023-2-27T17:02:20Z
2023-02-27T15:02:52Z,42.805,6.029,13.3029,4.60098,2470.6,2023-2-27T17:05:23Z
2023-02-27T15:05:55Z,42.805,6.029,13.3021,4.60109,2470.624,2023-2-27T17:08:26Z
2023-02-27T15:08:59Z,42.805,6.029,13.3028,4.60093,2470.614,2023-2-27T17:11:29Z
2023-02-27T15:12:02Z,42.805,6.029,13.3025,4.60087,2470.591,2023-2-27T17:14:32Z
2023-02-27T15:15:05Z,42.805,6.029,13.3024,4.60095,2470.6,2023-2-27T17:17:35Z